Location: Stendal
(52.5994°N, 11.8400°E)
Time: 11:29:09
(UTC+02:00)

Tianhe-1 - Visible Passes

Search period start: 15 May 2021 00:00
Search period end: 25 May 2021 00:00
Orbit: 359 x 385 km, 41.5° (Epoch: 14 May)

Date Brightness Start Highest point End Pass type
(mag) Time Alt. Az. Time Alt. Az. Time Alt. Az.
16 May 3.4 22:24:40 10° S 22:25:01 10° S 22:25:01 10° S visible
17 May 3.5 22:56:35 10° SSW 22:56:38 10° SSW 22:56:38 10° SSW visible
18 May 3.3 21:53:22 10° SSW 21:54:23 11° S 21:55:23 10° SSE visible
19 May 3.4 22:25:55 10° SSW 22:26:45 11° S 22:27:23 10° S visible
